Location: Newark
(54.6833°N, 25.2833°E)
Time: 02:23:18
(UTC+00:00)

A-11 Canister half - Pass Details

Date: 25 January 2021
Orbit: 1525 x 1684 km, 47.3° (Epoch: 05 March)

Event Time Altitude Azimuth Distance (km) Brightness Sun altitude
Rises 20:22:12 0° 282° (WNW) 4,790 12.2 -46.5°
Reaches altitude 10° 20:27:46 10° 257° (WSW) 3,838 11.3 -47.1°
Enters shadow 20:31:06 13° 236° (SW) 3,649 11.0 -47.4°
